| time (UTC) | temp F | wind direction | speed MPH | gust MPH | rain 1hr in | rain 24hr in | rain mn in | humidity % | barometer mb |
| 20260906031500 | 58 | 285 | 0.0 | 0.0 | 0.00 | 0.02 | 0.01 | 76 | 1000.0 |
| 20260906031003 | 59 | 285 | 0.0 | 0.0 | 0.00 | 0.02 | 0.01 | 76 | 999.9 |
| 20260906030459 | 59 | 285 | 0.0 | 0.0 | 0.00 | 0.02 | 0.01 | 76 | 999.9 |
| 20260906030000 | 59 | 285 | 0.0 | 0.0 | 0.00 | 0.02 | 0.01 | 76 | 999.9 |
| 20260906025459 | 59 | 285 | 0.0 | 0.0 | 0.00 | 0.02 | 0.01 | 76 | 999.9 |
| 20260906025000 | 60 | 285 | 0.0 | 0.0 | 0.00 | 0.02 | 0.01 | 76 | 999.9 |
| 20260906024029 | 60 | 285 | 0.0 | 0.0 | 0.00 | 0.02 | 0.01 | 76 | 999.8 |
| 20260906023459 | 61 | 285 | 0.0 | 0.0 | 0.00 | 0.02 | 0.01 | 76 | 999.8 |
| 20260906022959 | 61 | 285 | 0.0 | 0.0 | 0.00 | 0.02 | 0.01 | 76 | 999.7 |
| 20260906021504 | 62 | 285 | 0.0 | 0.0 | 0.00 | 0.02 | 0.01 | 76 | 999.7 |
| 20260906020002 | 62 | 285 | 0.0 | 0.0 | 0.00 | 0.02 | 0.01 | 76 | 999.9 |
| 20260906015006 | 62 | 285 | 0.0 | 0.0 | 0.00 | 0.02 | 0.01 | 75 | 999.7 |
| 20260906014001 | 62 | 285 | 0.0 | 0.0 | 0.00 | 0.02 | 0.01 | 75 | 999.7 |
| 20260906013459 | 62 | 285 | 0.0 | 0.0 | 0.00 | 0.02 | 0.01 | 75 | 999.7 |
| 20260906013001 | 62 | 285 | 0.0 | 0.0 | 0.00 | 0.02 | 0.01 | 75 | 999.7 |
| 20260906010500 | 61 | 285 | 0.0 | 0.0 | 0.00 | 0.02 | 0.01 | 75 | 999.7 |
| 20260906010003 | 61 | 285 | 0.0 | 0.0 | 0.00 | 0.02 | 0.01 | 76 | 999.7 |
| 20260906005500 | 62 | 285 | 0.0 | 0.0 | 0.00 | 0.02 | 0.01 | 75 | 999.7 |
| 20260906005002 | 62 | 285 | 0.0 | 0.0 | 0.00 | 0.02 | 0.01 | 74 | 999.8 |
| 20260906004500 | 63 | 285 | 0.0 | 0.0 | 0.00 | 0.02 | 0.01 | 75 | 999.8 |
| 20260906004000 | 63 | 285 | 0.0 | 0.0 | 0.00 | 0.02 | 0.01 | 73 | 999.8 |
| 20260906003500 | 63 | 285 | 0.0 | 0.0 | 0.00 | 0.02 | 0.01 | 71 | 999.8 |
| 20260906003001 | 63 | 285 | 0.0 | 0.0 | 0.00 | 0.02 | 0.01 | 71 | 999.8 |
| 20260906001958 | 63 | 285 | 0.0 | 0.0 | 0.00 | 0.02 | 0.01 | 73 | 999.9 |
| 20260906001459 | 66 | 285 | 0.0 | 0.0 | 0.00 | 0.02 | 0.01 | 71 | 1000.0 |
| 20260906000500 | 66 | 285 | 0.0 | 0.0 | 0.00 | 0.02 | 0.01 | 69 | 1000.2 |
| 20260906000003 | 65 | 285 | 0.0 | 0.0 | 0.00 | 0.02 | 0.01 | 72 | 999.9 |
| 20260905234500 | 64 | 285 | 0.0 | 2.0 | 0.00 | 0.02 | 0.01 | 74 | 999.9 |
| 20260905234005 | 64 | 285 | 0.0 | 2.0 | 0.00 | 0.02 | 0.01 | 74 | 999.9 |
| 20260905233501 | 62 | 240 | 0.0 | 0.0 | 0.00 | 0.02 | 0.01 | 76 | 1000.0 |
| 20260905233000 | 62 | 240 | 0.0 | 0.0 | 0.00 | 0.02 | 0.01 | 75 | 1000.1 |
| 20260905232505 | 62 | 241 | 0.0 | 0.0 | 0.00 | 0.02 | 0.01 | 75 | 1000.3 |
| 20260905232002 | 62 | 241 | 0.0 | 0.0 | 0.00 | 0.02 | 0.01 | 76 | 1000.4 |
| 20260905231001 | 60 | 241 | 0.0 | 1.0 | 0.01 | 0.02 | 0.01 | 74 | 1000.5 |
| 20260905230002 | 59 | 241 | 0.0 | 0.0 | 0.01 | 0.02 | 0.01 | 70 | 1000.6 |
| 20260905225503 | 59 | 241 | 0.0 | 0.0 | 0.01 | 0.02 | 0.01 | 67 | 1000.6 |
| 20260905224458 | 60 | 241 | 0.0 | 0.0 | 0.01 | 0.02 | 0.01 | 70 | 1000.6 |
| 20260905224000 | 60 | 241 | 0.0 | 0.0 | 0.01 | 0.02 | 0.01 | 71 | 1000.5 |
| 20260905223001 | 61 | 241 | 0.0 | 0.0 | 0.01 | 0.02 | 0.01 | 75 | 1000.5 |
| 20260905222503 | 61 | 241 | 0.0 | 0.0 | 0.01 | 0.02 | 0.01 | 75 | 1000.6 |
| 20260905222005 | 61 | 241 | 0.0 | 0.0 | 0.01 | 0.02 | 0.01 | 76 | 1000.7 |
| 20260905221504 | 61 | 241 | 0.0 | 0.0 | 0.00 | 0.01 | 0.00 | 76 | 1000.7 |
| 20260905221001 | 63 | 241 | 0.0 | 0.0 | 0.00 | 0.01 | 0.00 | 75 | 1000.7 |
| 20260905220501 | 63 | 241 | 0.0 | 0.0 | 0.00 | 0.01 | 0.00 | 74 | 1000.7 |
| 20260905220000 | 64 | 241 | 0.0 | 0.0 | 0.00 | 0.01 | 0.00 | 73 | 1000.6 |
| 20260905214504 | 64 | 241 | 0.0 | 0.0 | 0.00 | 0.01 | 0.00 | 67 | 1000.5 |
| 20260905213503 | 64 | 241 | 0.0 | 2.0 | 0.00 | 0.01 | 0.00 | 68 | 1000.4 |
| 20260905212959 | 64 | 241 | 0.0 | 0.0 | 0.00 | 0.01 | 0.00 | 66 | 1000.4 |
| 20260905212501 | 65 | 241 | 0.0 | 1.0 | 0.00 | 0.01 | 0.00 | 66 | 1000.4 |
| 20260905212001 | 64 | 241 | 0.0 | 1.0 | 0.00 | 0.01 | 0.00 | 68 | 1000.3 |
| 20260905211500 | 64 | 241 | 0.0 | 1.0 | 0.00 | 0.01 | 0.00 | 69 | 1000.3 |
| 20260905210503 | 65 | 240 | 0.0 | 3.0 | 0.00 | 0.01 | 0.00 | 66 | 1000.3 |
| 20260905210001 | 66 | 251 | 0.0 | 3.0 | 0.00 | 0.01 | 0.00 | 68 | 1000.2 |
| 20260905205003 | 65 | 236 | 2.0 | 8.0 | 0.00 | 0.01 | 0.00 | 71 | 1000.5 |
| 20260905204500 | 65 | 230 | 0.0 | 3.0 | 0.00 | 0.01 | 0.00 | 71 | 1000.4 |
| 20260905204001 | 64 | 255 | 1.0 | 3.0 | 0.00 | 0.01 | 0.00 | 72 | 1000.5 |
| 20260905203500 | 64 | 233 | 3.0 | 3.0 | 0.00 | 0.01 | 0.00 | 73 | 1000.5 |
| 20260905203001 | 63 | 252 | 0.0 | 7.0 | 0.00 | 0.01 | 0.00 | 73 | 1000.4 |
| 20260905202501 | 63 | 271 | 0.0 | 7.0 | 0.00 | 0.01 | 0.00 | 73 | 1000.4 |
| 20260905201500 | 64 | 231 | 0.0 | 3.0 | 0.00 | 0.01 | 0.00 | 73 | 1000.4 |
| 20260905201000 | 64 | 216 | 0.0 | 3.0 | 0.00 | 0.01 | 0.00 | 73 | 1000.4 |
| 20260905200002 | 64 | 254 | 0.0 | 3.0 | 0.00 | 0.01 | 0.00 | 74 | 1000.3 |
| 20260905195501 | 64 | 256 | 0.0 | 5.0 | 0.00 | 0.01 | 0.00 | 73 | 1000.2 |
| 20260905195000 | 64 | 248 | 0.0 | 5.0 | 0.00 | 0.01 | 0.00 | 73 | 1000.3 |
| 20260905192506 | 64 | 96 | 0.0 | 1.0 | 0.00 | 0.01 | 0.00 | 70 | 1000.5 |
| 20260905192000 | 63 | 94 | 0.0 | 1.0 | 0.00 | 0.01 | 0.00 | 68 | 1000.5 |
| 20260905185503 | 62 | 94 | 0.0 | 0.0 | 0.00 | 0.01 | 0.00 | 70 | 1000.7 |
| 20260905185007 | 62 | 94 | 0.0 | 0.0 | 0.00 | 0.01 | 0.00 | 72 | 1000.8 |
| 20260905183959 | 61 | 94 | 0.0 | 0.0 | 0.00 | 0.01 | 0.00 | 73 | 1000.8 |
| 20260905183458 | 61 | 94 | 0.0 | 0.0 | 0.00 | 0.01 | 0.00 | 74 | 1000.9 |
| 20260905183004 | 61 | 94 | 0.0 | 0.0 | 0.00 | 0.01 | 0.00 | 73 | 1000.9 |
| 20260905182459 | 61 | 94 | 0.0 | 0.0 | 0.00 | 0.01 | 0.00 | 73 | 1000.9 |
| 20260905182003 | 61 | 94 | 0.0 | 0.0 | 0.00 | 0.01 | 0.00 | 75 | 1000.9 |
| 20260905181501 | 61 | 94 | 0.0 | 0.0 | 0.00 | 0.01 | 0.00 | 74 | 1001.0 |
| 20260905175500 | 61 | 84 | 0.0 | 0.0 | 0.00 | 0.01 | 0.00 | 76 | 1001.2 |
| 20260905175000 | 60 | 84 | 0.0 | 0.0 | 0.00 | 0.01 | 0.00 | 76 | 1001.2 |
| 20260905174006 | 59 | 84 | 0.0 | 0.0 | 0.00 | 0.01 | 0.00 | 76 | 1001.3 |
| 20260905172959 | 57 | 84 | 0.0 | 0.0 | 0.00 | 0.01 | 0.00 | 74 | 1001.4 |
| 20260905172000 | 57 | 84 | 0.0 | 0.0 | 0.00 | 0.01 | 0.00 | 73 | 1001.4 |
| 20260905171500 | 56 | 84 | 0.0 | 0.0 | 0.00 | 0.01 | 0.00 | 75 | 1001.4 |
| 20260905170459 | 56 | 84 | 0.0 | 0.0 | 0.00 | 0.01 | 0.00 | 71 | 1001.5 |
| 20260905170014 | 55 | 84 | 0.0 | 0.0 | 0.00 | 0.01 | 0.00 | 70 | 1001.5 |
| 20260905165007 | 54 | 84 | 0.0 | 0.0 | 0.00 | 0.01 | 0.00 | 66 | 1001.5 |
| 20260905163505 | 51 | 84 | 0.0 | 0.0 | 0.00 | 0.01 | 0.00 | 59 | 1001.5 |
| 20260905162958 | 51 | 84 | 0.0 | 0.0 | 0.00 | 0.01 | 0.00 | 57 | 1001.5 |
| 20260905162000 | 50 | 84 | 0.0 | 0.0 | 0.00 | 0.01 | 0.00 | 55 | 1001.5 |
| 20260905161459 | 49 | 84 | 0.0 | 0.0 | 0.00 | 0.01 | 0.00 | 55 | 1001.5 |
| 20260905160511 | 49 | 84 | 0.0 | 0.0 | 0.00 | 0.01 | 0.00 | 55 | 1001.6 |
| 20260905160001 | 48 | 84 | 0.0 | 0.0 | 0.00 | 0.01 | 0.00 | 55 | 1001.6 |
| 20260905155505 | 47 | 84 | 0.0 | 0.0 | 0.00 | 0.01 | 0.00 | 57 | 1001.6 |
| 20260905153506 | 47 | 84 | 0.0 | 0.0 | 0.00 | 0.01 | 0.00 | 58 | 1001.7 |
| 20260905152003 | 46 | 84 | 0.0 | 0.0 | 0.00 | 0.01 | 0.00 | 59 | 1001.8 |
| 20260905151500 | 46 | 84 | 0.0 | 0.0 | 0.00 | 0.01 | 0.00 | 59 | 1001.8 |
| 20260905150000 | 46 | 84 | 0.0 | 0.0 | 0.00 | 0.01 | 0.00 | 60 | 1001.8 |
| 20260905145459 | 46 | 84 | 0.0 | 0.0 | 0.00 | 0.01 | 0.00 | 60 | 1001.8 |
| 20260905144959 | 46 | 84 | 0.0 | 0.0 | 0.00 | 0.01 | 0.00 | 61 | 1001.8 |
| 20260905143504 | 46 | 84 | 0.0 | 0.0 | 0.00 | 0.01 | 0.00 | 61 | 1001.7 |
| 20260905142502 | 46 | 84 | 0.0 | 0.0 | 0.00 | 0.01 | 0.00 | 61 | 1001.7 |
| 20260905142006 | 45 | 84 | 0.0 | 0.0 | 0.00 | 0.01 | 0.00 | 62 | 1001.8 |
| 20260905141505 | 46 | 84 | 0.0 | 0.0 | 0.00 | 0.01 | 0.00 | 62 | 1001.7 |
| 20260905125514 | 47 | 232 | 0.0 | 0.0 | 0.00 | 0.01 | 0.00 | 61 | 1001.3 |
| 20260905124515 | 47 | 232 | 0.0 | 0.0 | 0.00 | 0.01 | 0.00 | 61 | 1001.2 |
| 20260905123010 | 47 | 232 | 0.0 | 0.0 | 0.00 | 0.01 | 0.00 | 61 | 1001.3 |
| 20260905113511 | 47 | 232 | 0.0 | 0.0 | 0.00 | 0.01 | 0.00 | 62 | 1001.2 |
| 20260905113006 | 47 | 232 | 0.0 | 0.0 | 0.00 | 0.01 | 0.00 | 62 | 1001.2 |
| 20260905112002 | 48 | 232 | 0.0 | 0.0 | 0.00 | 0.01 | 0.00 | 62 | 1001.1 |
| 20260905111001 | 48 | 232 | 0.0 | 0.0 | 0.00 | 0.01 | 0.00 | 62 | 1001.1 |
| 20260905110501 | 48 | 232 | 0.0 | 0.0 | 0.00 | 0.01 | 0.00 | 63 | 1001.0 |
| 20260905110001 | 48 | 232 | 0.0 | 0.0 | 0.00 | 0.01 | 0.00 | 63 | 1001.0 |
| 20260905105500 | 48 | 232 | 0.0 | 0.0 | 0.00 | 0.01 | 0.00 | 62 | 1001.0 |
| 20260905104005 | 48 | 232 | 0.0 | 0.0 | 0.00 | 0.01 | 0.00 | 63 | 1001.0 |
| 20260905103501 | 48 | 232 | 0.0 | 0.0 | 0.00 | 0.01 | 0.00 | 63 | 1001.0 |
| 20260905102501 | 48 | 232 | 0.0 | 0.0 | 0.00 | 0.01 | 0.00 | 63 | 1001.0 |
| 20260905102003 | 48 | 232 | 0.0 | 0.0 | 0.00 | 0.01 | 0.00 | 63 | 1001.0 |
| 20260905101520 | 48 | 232 | 0.0 | 0.0 | 0.00 | 0.01 | 0.00 | 63 | 1001.0 |
| 20260905100508 | 49 | 232 | 0.0 | 0.0 | 0.00 | 0.01 | 0.00 | 63 | 1001.0 |
| 20260905100005 | 49 | 232 | 0.0 | 0.0 | 0.00 | 0.01 | 0.00 | 63 | 1001.0 |
| 20260905095506 | 49 | 232 | 0.0 | 0.0 | 0.00 | 0.01 | 0.00 | 63 | 1001.1 |
| 20260905094502 | 49 | 232 | 0.0 | 0.0 | 0.00 | 0.01 | 0.00 | 63 | 1001.0 |
| 20260905094001 | 49 | 232 | 0.0 | 0.0 | 0.00 | 0.01 | 0.00 | 63 | 1001.0 |
| 20260905093500 | 49 | 232 | 0.0 | 0.0 | 0.00 | 0.01 | 0.00 | 63 | 1001.0 |
| 20260905093002 | 49 | 232 | 0.0 | 0.0 | 0.00 | 0.01 | 0.00 | 63 | 1001.0 |
| 20260905092501 | 49 | 232 | 0.0 | 0.0 | 0.00 | 0.01 | 0.00 | 63 | 1001.0 |
| 20260905092000 | 49 | 232 | 0.0 | 0.0 | 0.00 | 0.01 | 0.00 | 63 | 1001.0 |
| 20260905091501 | 49 | 232 | 0.0 | 0.0 | 0.00 | 0.01 | 0.00 | 63 | 1000.9 |
| 20260905090002 | 49 | 232 | 0.0 | 0.0 | 0.00 | 0.01 | 0.00 | 64 | 1000.9 |
| 20260905085500 | 49 | 232 | 0.0 | 0.0 | 0.00 | 0.01 | 0.00 | 64 | 1000.9 |
| 20260905085001 | 49 | 232 | 0.0 | 0.0 | 0.00 | 0.01 | 0.00 | 64 | 1001.0 |
| 20260905084504 | 50 | 232 | 0.0 | 0.0 | 0.00 | 0.01 | 0.00 | 64 | 1001.0 |
| 20260905084005 | 50 | 232 | 0.0 | 0.0 | 0.00 | 0.01 | 0.00 | 64 | 1001.0 |
| 20260905083502 | 50 | 232 | 0.0 | 0.0 | 0.00 | 0.01 | 0.00 | 64 | 1001.0 |
| 20260905082502 | 50 | 232 | 0.0 | 0.0 | 0.00 | 0.01 | 0.00 | 65 | 1000.9 |
| 20260905081502 | 50 | 232 | 0.0 | 0.0 | 0.00 | 0.01 | 0.00 | 65 | 1001.0 |
| 20260905081002 | 50 | 232 | 0.0 | 0.0 | 0.00 | 0.01 | 0.00 | 65 | 1001.0 |
| 20260905080504 | 50 | 232 | 0.0 | 0.0 | 0.00 | 0.01 | 0.00 | 65 | 1001.0 |
| 20260905074506 | 50 | 232 | 0.0 | 0.0 | 0.01 | 0.01 | 0.00 | 66 | 1000.9 |
| 20260905074006 | 50 | 232 | 0.0 | 0.0 | 0.01 | 0.01 | 0.00 | 66 | 1000.9 |
| 20260905072504 | 50 | 232 | 0.0 | 0.0 | 0.01 | 0.01 | 0.00 | 66 | 1000.8 |
| 20260905071507 | 50 | 232 | 0.0 | 0.0 | 0.01 | 0.01 | 0.00 | 66 | 1000.6 |
| 20260905064503 | 51 | 232 | 0.0 | 0.0 | 0.00 | 0.00 | 0.00 | 66 | 1000.5 |
| 20260905063004 | 51 | 232 | 0.0 | 0.0 | 0.00 | 0.00 | 0.00 | 66 | 1000.4 |
| 20260905062018 | 51 | 232 | 0.0 | 0.0 | 0.00 | 0.00 | 0.00 | 66 | 1000.4 |
| 20260905061521 | 51 | 232 | 0.0 | 0.0 | 0.00 | 0.00 | 0.00 | 66 | 1000.4 |
| 20260905060010 | 51 | 232 | 0.0 | 0.0 | 0.00 | 0.01 | 0.00 | 66 | 1000.4 |
| 20260905055005 | 51 | 232 | 0.0 | 0.0 | 0.00 | 0.01 | 0.00 | 67 | 1000.4 |
| 20260905054010 | 52 | 232 | 0.0 | 0.0 | 0.00 | 0.01 | 0.00 | 68 | 1000.3 |
| 20260905053004 | 52 | 232 | 0.0 | 0.0 | 0.00 | 0.01 | 0.00 | 69 | 1000.3 |
| 20260905052500 | 52 | 232 | 0.0 | 0.0 | 0.00 | 0.01 | 0.00 | 69 | 1000.3 |
| 20260905051504 | 52 | 232 | 0.0 | 0.0 | 0.00 | 0.01 | 0.00 | 69 | 1000.4 |
| 20260905050511 | 52 | 232 | 0.0 | 0.0 | 0.00 | 0.01 | 0.00 | 69 | 1000.3 |
| 20260905044502 | 52 | 232 | 0.0 | 0.0 | 0.00 | 0.01 | 0.00 | 69 | 1000.3 |
| 20260905044001 | 52 | 232 | 0.0 | 0.0 | 0.00 | 0.01 | 0.00 | 69 | 1000.2 |
| 20260905043001 | 53 | 232 | 0.0 | 0.0 | 0.00 | 0.01 | 0.00 | 69 | 1000.2 |
| 20260905042501 | 53 | 232 | 0.0 | 0.0 | 0.00 | 0.01 | 0.00 | 70 | 1000.2 |
| 20260905042001 | 53 | 232 | 0.0 | 0.0 | 0.00 | 0.01 | 0.00 | 70 | 1000.2 |
| 20260905041505 | 53 | 232 | 0.0 | 0.0 | 0.00 | 0.01 | 0.00 | 70 | 1000.2 |
| 20260905041001 | 53 | 232 | 0.0 | 0.0 | 0.00 | 0.01 | 0.00 | 70 | 1000.1 |
| 20260905040500 | 53 | 232 | 0.0 | 0.0 | 0.00 | 0.01 | 0.00 | 70 | 1000.1 |
| 20260905040000 | 53 | 232 | 0.0 | 0.0 | 0.00 | 0.01 | 0.00 | 70 | 1000.1 |
| 20260905034000 | 54 | 232 | 0.0 | 0.0 | 0.00 | 0.01 | 0.00 | 71 | 999.9 |
| 20260905033001 | 54 | 232 | 0.0 | 0.0 | 0.00 | 0.01 | 0.00 | 71 | 999.7 |
| 20260905032500 | 54 | 232 | 0.0 | 0.0 | 0.00 | 0.01 | 0.00 | 71 | 999.7 |
| 20260905031959 | 55 | 232 | 0.0 | 0.0 | 0.00 | 0.01 | 0.00 | 71 | 999.6 |